Location: Santa Margarita Creek
(35.4444°N, 120.6063°W)
Time: 06:58:25
(UTC+00:00)

Daily predictions for brighter satellites

Satellite Brightness Start Highest point End
(mag) Time Altitude Azimuth Time Altitude Azimuth Time Altitude Azimuth
H-2A R/B 3.5 12:00:55 10° N 12:04:39 50° WNW 12:08:09 11° SSW
CZ-2D R/B 4.1 12:05:27 10° NW 12:06:45 11° WNW 12:08:04 10° WNW
Cosmos 1844 Rocket 4.3 12:04:57 10° WNW 12:07:29 13° W 12:09:00 12° WSW
ADEOS Rocket 3.8 12:00:45 10° NNE 12:08:34 79° ESE 12:16:13 10° S
Lacrosse 4 Rocket 1.3 12:06:52 10° SSW 12:10:49 86° WNW 12:14:57 10° NNE
Cosmos 1766 Rocket 3.8 12:09:40 10° SSW 12:13:48 48° W 12:17:58 10° N
Cosmos 2341 Rocket 4.4 12:11:55 10° SSW 12:17:45 43° W 12:23:39 10° N
TIMED 4.5 12:16:20 10° NNW 12:20:32 60° WSW 12:24:43 10° S
Cosmos 2366 rocket 4.4 12:15:25 10° SSW 12:21:22 46° W 12:27:19 10° N
Cosmos 1437 Rocket 2.8 12:19:53 10° NNW 12:23:25 46° W 12:26:52 10° S
Cosmos 1331 Rocket 4.0 12:18:45 10° SSW 12:23:53 76° WNW 12:29:01 10° NNE
Cosmos 1943 Rocket 3.9 12:18:40 10° N 12:23:55 38° ENE 12:29:10 10° SE
ARGOS 3.2 12:18:31 10° N 12:23:57 78° WNW 12:29:19 10° SSW
OAO 3 Rocket 3.2 12:19:21 10° W 12:23:58 56° SSW 12:28:31 10° ESE
Iridium 4 Rocket 4.2 12:20:51 10° SSW 12:26:18 43° W 12:31:34 10° NNW
UNK 3.9 12:25:10 10° S 12:29:33 51° W 12:34:00 10° NNW
Okean 3 Rocket 3.6 12:25:31 10° S 12:30:00 81° W 12:34:32 10° N
Cosmos 1515 Rocket 4.0 12:26:06 10° N 12:30:23 66° E 12:34:38 10° SSE
H-2A R/B 3.1 12:26:48 10° NNW 12:30:46 25° WNW 12:34:43 10° WSW
Cosmos 2219 Rocket 4.2 12:29:09 10° W 12:31:44 13° NW 12:34:20 10° NNW
Cosmos 1452 Rocket 3.5 12:26:51 10° SSW 12:32:04 76° WNW 12:37:20 10° NNE
Timation 2 Rocket 4.2 12:25:45 10° NNW 12:32:20 86° WSW 12:39:08 10° SSE
Cosmos 676 Rocket 4.2 12:31:51 10° NNW 12:36:49 49° WSW 12:41:48 10° S
